[Date Prev][Date Next][Thread Prev][Thread Next] - [Date Index][Thread Index][Author Index]

2 Line ISS Keps 5-9



ISS
1 25544U 98067A   03129.14005752  .00018154  00000-0  23348-3 0  9889
2 25544  51.6314 216.4452 0006540  96.2014 342.1100 15.59119790254912


----
Via the sarex mailing list at AMSAT.ORG courtesy of AMSAT-NA.
To unsubscribe, send "unsubscribe sarex" to Majordomo@amsat.org



AMSAT Top AMSAT Home